7 * 24
多渠道服务支持
COSMOS 2206又称格洛纳斯-774,是独联体(CIS)俄罗斯发射的GLONASS全球导航卫星,于1992年7月30发射入轨。该卫星运行于中地球轨道,采取三轴稳定模式,与其他卫星协同提供全球定位导航服务,增强系统覆盖范围与定位精度。卫星因燃料耗尽已退役,目前仍在轨运行,被列为潜在空间碎片。
俄罗斯(独联体)
(CIS)
| 数据来源 | 国际轨道数据 |
| 星历时间: | 2026-09-08T13:19:48+0800 3天前 查看轨道信息 |
| 半长轴: | 25507.634km |
| 偏心率: | 0.0011342 |
| 轨道倾角: | 64.084° |
| 近地点辐角 | 240.575° |
| 升交点赤经 | 299.146° |
| 平近点角 | 203.464° |
| 近地点: | 19100.566km |
| 远地点: | 19158.428km |
| 周期: | 675.717分钟 |
| 每日圈数: | 2.131069 |